Location: Champaign/Urbana Astronomical Society Observatory
(40.0333°N, 88.2833°W)
Time: 05:06:49
(UTC-06:00)

ISS - Visible Passes

Search period start: 19 November 2018 00:00
Search period end: 29 November 2018 00:00
Orbit: 401 x 408 km, 51.6° (Epoch: 19 November)

Date Brightness Start Highest point End Pass type
(mag) Time Alt. Az. Time Alt. Az. Time Alt. Az.
21 Nov -1.1 18:40:34 10° SSW 18:41:06 14° SSW 18:41:06 14° SSW visible
22 Nov -2.0 17:49:19 10° S 17:51:32 18° SE 17:51:32 18° SE visible
23 Nov -2.5 18:32:24 10° SW 18:34:34 39° SW 18:34:34 39° SW visible
24 Nov -3.3 17:40:27 10° SSW 17:43:34 44° SE 17:44:49 28° E visible
24 Nov -0.2 19:17:24 10° W 19:17:29 10° W 19:17:29 10° W visible
25 Nov -2.7 18:24:47 10° WSW 18:27:38 38° NW 18:27:38 38° NW visible
26 Nov -3.7 17:32:24 10° WSW 17:35:39 71° NW 17:37:42 21° NE visible
27 Nov -1.9 18:17:34 10° WNW 18:20:11 22° NNW 18:20:22 21° NNW visible
28 Nov -2.5 17:24:50 10° W 17:27:49 32° NNW 17:30:18 13° NNE visible
